User: anonymous   Login
Location: Unspecified
(0.0000°N, 0.0000°E)
Time: 14:21:13
(UTC+00:00)
Language:

GSAT 15 - Orbit

View from above orbital plane
View from above orbital plane
View from above satellite
View from above satellite

Ground track
Ground track

The orbit data is extracted from the following two-line orbital elements,

1 41028U 15065A   21290.89331450 -.00000271  00000-0  00000-0 0  9990
2 41028   0.0747  89.8756 0002673  92.2931 259.5372  1.00271105 21724
Epoch (UTC): 17 October 2021 21:26:22
Eccentricity: 0.0002673
inclination: 0.0747°
perigee height: 35775 km
apogee height: 35797 km
right ascension of ascending node: 89.8756°
argument of perigee: 92.2931°
revolutions per day: 1.00271105
mean anomaly at epoch: 259.5372°
orbit number at epoch: 2172

The dashed part of the orbit path shows where the satellite is in the earth's shadow,  

DLR